Regional Weather Roundup
Issued by NWS

Home | Current Version | Previous Version | Graphics & Text | Print | Product List | Glossary On
Versions: 1 2 3 4 5 6 7 8 9 10 11 12 13 14 15 16 17 18 19 20 21 22 23 24 25 26 27 28 29 30 31 32 33 34 35 36 37 38 39 40 41 42 43 44 45 46 47 48 49 50
000
ASUS43 KBIS 051202
RWRND

NORTH DAKOTA REGIONAL WEATHER ROUNDUP
NATIONAL WEATHER SERVICE BISMARCK ND
700 AM CDT THU MAY 05 2016

NOTE: "FAIR" INDICATES FEW OR NO CLOUDS BELOW 12,000 FEET WITH NO
SIGNIFICANT WEATHER AND/OR OBSTRUCTIONS TO VISIBILITY.


NDZ001>003-009>011-017-051300-
NORTHWEST NORTH DAKOTA

CITY           SKY/WX    TMP DP  RH WIND       PRES   REMARKS
WILLISTON      CLEAR     50  42  74 SW5       29.85F
6HR MIN TEMP:  46; 6HR MAX TEMP:  64;

MINOT          CLEAR     65  42  43 SW17      29.84S
MINOT AFB      CLEAR     62  44  52 SW15      29.82S
$$

NDZ018>021-031>035-040>046-051300-
SOUTHWEST NORTH DAKOTA

CITY           SKY/WX    TMP DP  RH WIND       PRES   REMARKS
BISMARCK       CLEAR     51  44  77 CALM      29.92S
6HR MIN TEMP:  49; 6HR MAX TEMP:  63;

DICKINSON      CLEAR     50  41  71 S13       29.90S
GARRISON         N/A     53  43  68 CALM      29.89S
6HR MIN TEMP:  48; 6HR MAX TEMP:  55;

HETTINGER ARPT CLEAR     51  40  65 SE5       29.96R
$$

NDZ004>008-012>016-024-026-027-054-051300-
NORTHEAST NORTH DAKOTA

CITY           SKY/WX    TMP DP  RH WIND       PRES   REMARKS
GRAND FORKS    PTCLDY    52  36  54 S9        29.84R
GRND FRKS AFB  CLEAR     64  43  45 W14G24    29.82R
DEVILS LAKE    PTCLDY    55  45  68 SW9       29.87R
$$

NDZ022-023-025-028>030-036>039-047>053-051300-
SOUTHEAST NORTH DAKOTA

CITY           SKY/WX    TMP DP  RH WIND       PRES   REMARKS
FARGO          CLEAR     54  32  43 S12       29.90S
6HR MIN TEMP:  51; 6HR MAX TEMP:  57;

JAMESTOWN      CLEAR     57  42  57 W8        29.90R
$$




USA.gov is the U.S. government's official web portal to all federal, state and local government web resources and services.